Tracking 20942 objects as of 13-Jul-2020
HD Live streaming from Space Station
objects crossing your sky now

THOR ABLESTAR DEB

Track THOR ABLESTAR DEB now!
10-day predictions


NORAD ID: 318
Int'l Code: 1961-015CU
Perigee: 564.5 km
Apogee: 672.1 km
Inclination: 66.5 °
Period: 96.9 minutes
Semi major axis: 6989 km
RCS: 0.0477 m2 (small)
Launch date: June 29, 1961
Source: United States (US)
Launch site: AIR FORCE EASTERN TEST RANGE (AFETR)

Note: This is SATELLITE DEBRIS
aabbcc
Your satellite tracking list
Your tracking list is empty




NASA's NSSDC Master Catalog

Two Line Element Set (TLE):
1   318U 61015CU  20194.97346550  .00000323  00000-0  50215-4 0  9995
2   318  66.5362  30.4261 0077019 226.4981 132.9727 14.85768391110841
Source of the keplerian elements: AFSPC